"Pseudo-MPEC" for P10OXaN

Created 2019 Jun 20 19:07:22 UT using Find_Orb

Click here for an explanation of pseudo-MPECs

 
 Astrometry: 
     P10OXaN  C2019 06 09N8)KS?+$cR:qhu.OP[POIW3K7cY+kqhq3ujySAstrometryKVGBDF51
     P10OXaN  C2019 06 09w*s'e#Vredacted;5[C:w5XV@#click'ct:^d38r8ns48pew]C.rF51
     P10OXaN  C2019 06 11$+gU@yf;Vm$hereQbbouTA3H;G:1?Zc#KO[V6QoVlKJJV22aAGtiF51
     P10OXaN  C2019 06 11u^(:kupkVaFW0#I6'sl9`L'NNJj#.rq=gUg3ent2K_iOupAforcbF51
     P10OXaN  C2019 06 11ncCvkexplanationHfH09?70,FR?2FnDKSgN]#IF?qccm.e4VuMuF51

Station data:
(F51) Pan-STARRS 1, Haleakala  (N20.707235 W156.255910)  US/Hawaii.
   Observers N. Primak, A. Schultz, S. Watters, J. Thiel, T. Goggia. Measurer
   PS1 Science Consortium. 1.8-m Ritchey-Chrétien + CCD.

Orbital elements:  P10OXaN
   Perihelion 2017 Feb 17.204339 +/- 611 TT =  4:54:14 (JD 2457801.704339)
Epoch 2019 Jun 11.0 TT = JDT 2458645.5   Ju: 0.9781           AutoNEOCP
M 145.53034339 +/- 110              (J2000 ecliptic)
n   0.17247107 +/- 0.158            Peri.  318.67970 +/- 70
a   3.19638098 +/- 1.95             Node   197.34588 +/- 41
e   0.3607117 +/- 0.225             Incl.   19.39148 +/- 8
P   5.71                   H 15.4   G  0.15   U 11.5  SR
q 2.04340867 +/- 2.43    Q 4.34935329 +/- 86.8
From 5 observations 2019 June 9-11; mean residual 0".13
Residuals in arcseconds: 
190609 F51  .02-  .03+    190611 F51  .28-  .12-    190611 F51  .25+  .03+    
190609 F51  .02+  .03-    190611 F51  .03+  .09+    

Ephemerides (geocentric):
Date (UTC) HH   RA              Dec         delta   r     elong  mag " sig PA
---- -- -- --  -------------   -----------  ------ ------ -----  --- ---- ---
2019 06 20 19  21 55 58.453   +07 20 23.19  3.7360 4.2473 113.7 22.1  352 157
2019 06 20 20  21 55 58.139   +07 20 29.21  3.7355 4.2474 113.7 22.1  355 157
2019 06 20 21  21 55 57.823   +07 20 35.22  3.7350 4.2474 113.8 22.1  358 157
2019 06 20 22  21 55 57.505   +07 20 41.21  3.7345 4.2475 113.8 22.1  361 157
2019 06 20 23  21 55 57.186   +07 20 47.20  3.7339 4.2475 113.8 22.1  364 157
2019 06 21 00  21 55 56.866   +07 20 53.18  3.7334 4.2476 113.9 22.1  367 157
2019 06 21 01  21 55 56.544   +07 20 59.14  3.7329 4.2476 113.9 22.1  370 157
2019 06 21 02  21 55 56.220   +07 21 05.10  3.7324 4.2476 113.9 22.1  373 157
2019 06 21 03  21 55 55.895   +07 21 11.04  3.7319 4.2477 114.0 22.1  376 157
2019 06 21 04  21 55 55.568   +07 21 16.98  3.7314 4.2477 114.0 22.1  379 157
2019 06 21 05  21 55 55.240   +07 21 22.90  3.7309 4.2478 114.1 22.1  383 157
2019 06 21 06  21 55 54.910   +07 21 28.81  3.7304 4.2478 114.1 22.1  386 157
2019 06 21 07  21 55 54.579   +07 21 34.72  3.7299 4.2479 114.1 22.1  389 157
2019 06 21 08  21 55 54.246   +07 21 40.61  3.7294 4.2479 114.2 22.1  392 157
2019 06 21 09  21 55 53.912   +07 21 46.49  3.7289 4.2480 114.2 22.1  395 157
2019 06 21 10  21 55 53.576   +07 21 52.36  3.7284 4.2480 114.2 22.1  398 157
2019 06 21 11  21 55 53.238   +07 21 58.22  3.7279 4.2480 114.3 22.1  402 157
2019 06 21 12  21 55 52.899   +07 22 04.07  3.7274 4.2481 114.3 22.1  405 157
2019 06 21 13  21 55 52.559   +07 22 09.90  3.7269 4.2481 114.4 22.1  408 157
2019 06 21 14  21 55 52.217   +07 22 15.73  3.7264 4.2482 114.4 22.1  411 157
2019 06 21 15  21 55 51.873   +07 22 21.55  3.7259 4.2482 114.4 22.1  414 157
2019 06 21 16  21 55 51.528   +07 22 27.35  3.7254 4.2483 114.5 22.1  418 157
2019 06 21 17  21 55 51.181   +07 22 33.15  3.7249 4.2483 114.5 22.1  421 157
2019 06 21 18  21 55 50.833   +07 22 38.93  3.7244 4.2484 114.5 22.1  424 157
2019 06 21 19  21 55 50.484   +07 22 44.71  3.7239 4.2484 114.6 22.1  428 157
2019 06 21 20  21 55 50.132   +07 22 50.47  3.7234 4.2484 114.6 22.1  431 157
2019 06 21 21  21 55 49.780   +07 22 56.22  3.7229 4.2485 114.7 22.1  434 157
2019 06 21 22  21 55 49.425   +07 23 01.96  3.7224 4.2485 114.7 22.1  438 157
2019 06 21 23  21 55 49.069   +07 23 07.69  3.7219 4.2486 114.7 22.1  441 157
2019 06 22 00  21 55 48.712   +07 23 13.41  3.7214 4.2486 114.8 22.1  444 157
2019 06 22 01  21 55 48.353   +07 23 19.12  3.7209 4.2487 114.8 22.1  448 157
2019 06 22 02  21 55 47.993   +07 23 24.82  3.7204 4.2487 114.8 22.1  451 157
2019 06 22 03  21 55 47.631   +07 23 30.50  3.7199 4.2488 114.9 22.1  455 157
2019 06 22 04  21 55 47.267   +07 23 36.18  3.7194 4.2488 114.9 22.1  458 157
2019 06 22 05  21 55 46.902   +07 23 41.85  3.7189 4.2488 115.0 22.1  461 157
2019 06 22 06  21 55 46.536   +07 23 47.50  3.7184 4.2489 115.0 22.1  465 157
2019 06 22 07  21 55 46.167   +07 23 53.14  3.7179 4.2489 115.0 22.1  468 157
2019 06 22 08  21 55 45.798   +07 23 58.78  3.7174 4.2490 115.1 22.1  472 157
2019 06 22 09  21 55 45.427   +07 24 04.40  3.7169 4.2490 115.1 22.1  475 157
2019 06 22 10  21 55 45.054   +07 24 10.01  3.7164 4.2491 115.1 22.1  479 157
2019 06 22 11  21 55 44.680   +07 24 15.61  3.7159 4.2491 115.2 22.1  482 157
2019 06 22 12  21 55 44.304   +07 24 21.20  3.7154 4.2492 115.2 22.1  486 157
2019 06 22 13  21 55 43.926   +07 24 26.78  3.7149 4.2492 115.3 22.1  489 157
2019 06 22 14  21 55 43.548   +07 24 32.35  3.7144 4.2492 115.3 22.1  493 157
2019 06 22 15  21 55 43.167   +07 24 37.90  3.7139 4.2493 115.3 22.1  497 157
2019 06 22 16  21 55 42.785   +07 24 43.45  3.7134 4.2493 115.4 22.1  500 157
2019 06 22 17  21 55 42.402   +07 24 48.98  3.7129 4.2494 115.4 22.1  504 157
2019 06 22 18  21 55 42.017   +07 24 54.51  3.7124 4.2494 115.5 22.1  507 157